{"data":{"norad_id":67454,"intl_designator":"2026-008K","name":"STARLINK-36517","alt_names":[],"object_type":"PAYLOAD","status":"ACTIVE","operator":null,"country":"US","launch_date":"2026-01-14","launch_site_code":"AFETR","launch_vehicle":null,"mission":null,"orbit_class":"UNKNOWN","rcs_meters":null,"size_class":null,"mass_kg":null,"dimensions":null,"purposes":["comms"],"wikipedia_slug":null,"has_3d_model":false,"image_url":null,"decayed_at":null,"tle_current":{"epoch":"2026-05-25T00:33:37.744992Z","epoch_age_seconds":83522,"freshness":"FRESH","line1":"1 67454U 26008K   26145.02335353  .00018105  00000+0  66556-3 0  9999","line2":"2 67454  42.9988 134.3868 0000951 237.3138 122.7622 15.27593992 21246","mean_motion":15.27593992,"eccentricity":9.51e-5,"inclination_deg":42.9988,"raan_deg":134.3868,"arg_perigee_deg":237.3138,"mean_anomaly_deg":122.7622,"bstar":0.00066556,"rev_number":2124,"period_min":94.265885277192,"perigee_km":482.3547044645,"apogee_km":483.6596940912,"semimajor_km":6861.1441992779,"source":"CELESTRAK","updated_at":"2026-05-25T13:38:21.561036Z"}}}